UAE9658 LEBL-LEZG

Flight info

Callsign UAE9658
Flight time 0h 31m
Altitude 20000
Route LOBAR
Aircraft B77L/H-SDE1E2E3FGHIJ2J3J4J5M1RWXY/LB1D1

Departure

Time 2026-04-18 10:30
Airport Josep Tarradellas Barcelona-El Prat Airport (LEBL)

Arrival

Time 2026-04-18 11:02
Airport Zaragoza Airport (LEZG)
Time Latitude Longitude Altitude Speed Heading
2026-04-18 09:48 41.29932 2.06816 24 ft 0 kts 337°
2026-04-18 10:09 41.29925 2.06820 22 ft 3 kts 337°
2026-04-18 10:10 41.29906 2.06830 26 ft 3 kts 336°
2026-04-18 10:10 41.29888 2.06842 27 ft 3 kts 331°
2026-04-18 10:10 41.29871 2.06854 28 ft 3 kts 346°
2026-04-18 10:10 41.29862 2.06860 28 ft 2 kts 56°
2026-04-18 10:11 41.29858 2.06848 28 ft 3 kts 65°
2026-04-18 10:11 41.29850 2.06825 28 ft 2 kts 65°
2026-04-18 10:11 41.29847 2.06818 27 ft 0 kts 65°
2026-04-18 10:14 41.29848 2.06820 28 ft 1 kts 65°
2026-04-18 10:14 41.29854 2.06837 27 ft 5 kts 65°
2026-04-18 10:14 41.29868 2.06879 28 ft 6 kts 65°
2026-04-18 10:14 41.29890 2.06942 24 ft 6 kts 65°
2026-04-18 10:15 41.29914 2.07014 25 ft 7 kts 65°
2026-04-18 10:15 41.29918 2.07024 24 ft 0 kts 65°
2026-04-18 10:15 41.29924 2.07041 24 ft 5 kts 65°
2026-04-18 10:15 41.29932 2.07066 25 ft 0 kts 65°
2026-04-18 10:16 41.29933 2.07079 25 ft 3 kts 87°
2026-04-18 10:16 41.29916 2.07120 25 ft 7 kts 133°
2026-04-18 10:16 41.29870 2.07148 27 ft 5 kts 157°
2026-04-18 10:16 41.29830 2.07188 27 ft 9 kts 124°
2026-04-18 10:17 41.29834 2.07277 25 ft 11 kts 70°
2026-04-18 10:17 41.29866 2.07373 27 ft 12 kts 66°
2026-04-18 10:17 41.29906 2.07490 23 ft 12 kts 65°
2026-04-18 10:17 41.29931 2.07565 25 ft 0 kts 65°
2026-04-18 10:18 41.29936 2.07579 25 ft 4 kts 65°
2026-04-18 10:19 41.29955 2.07634 25 ft 9 kts 65°
2026-04-18 10:19 41.29987 2.07729 24 ft 14 kts 66°
2026-04-18 10:19 41.30032 2.07863 25 ft 18 kts 65°
2026-04-18 10:19 41.30030 2.07998 27 ft 17 kts 148°
2026-04-18 10:20 41.29923 2.08058 23 ft 2 kts 159°
2026-04-18 10:20 41.29921 2.08059 23 ft 2 kts 159°
2026-04-18 10:20 41.29893 2.08073 25 ft 7 kts 159°
2026-04-18 10:20 41.29830 2.08104 24 ft 12 kts 159°
2026-04-18 10:21 41.29747 2.08151 24 ft 11 kts 156°
2026-04-18 10:21 41.29665 2.08199 27 ft 15 kts 156°
2026-04-18 10:21 41.29557 2.08265 26 ft 19 kts 156°
2026-04-18 10:21 41.29430 2.08340 25 ft 19 kts 156°
2026-04-18 10:22 41.29298 2.08420 23 ft 23 kts 155°
2026-04-18 10:22 41.29143 2.08515 24 ft 27 kts 155°
2026-04-18 10:22 41.28963 2.08621 25 ft 25 kts 156°
2026-04-18 10:22 41.28865 2.08725 25 ft 16 kts 86°
2026-04-18 10:23 41.28913 2.08872 25 ft 19 kts 65°
2026-04-18 10:23 41.28973 2.09054 25 ft 23 kts 66°
2026-04-18 10:23 41.29045 2.09264 25 ft 27 kts 65°
2026-04-18 10:23 41.29121 2.09487 24 ft 22 kts 65°
2026-04-18 10:24 41.29172 2.09637 27 ft 16 kts 65°
2026-04-18 10:24 41.29221 2.09780 26 ft 18 kts 65°
2026-04-18 10:24 41.29259 2.09889 25 ft 0 kts 65°
2026-04-18 10:25 41.29260 2.09893 25 ft 2 kts 65°
2026-04-18 10:26 41.29273 2.09922 25 ft 5 kts 50°
2026-04-18 10:26 41.29300 2.09973 25 ft 8 kts 62°
2026-04-18 10:26 41.29328 2.10056 25 ft 11 kts 73°
2026-04-18 10:26 41.29304 2.10158 25 ft 7 kts 111°
2026-04-18 10:27 41.29303 2.10161 25 ft 0 kts 111°
2026-04-18 10:27 41.29303 2.10163 25 ft 2 kts 111°
2026-04-18 10:28 41.29293 2.10197 24 ft 6 kts 111°
2026-04-18 10:28 41.29265 2.10273 20 ft 12 kts 130°
2026-04-18 10:28 41.29211 2.10294 18 ft 0 kts 211°
2026-04-18 10:28 41.29201 2.10270 20 ft 7 kts 248°
2026-04-18 10:29 41.29199 2.10261 18 ft 0 kts 250°
2026-04-18 10:29 41.29198 2.10258 18 ft 3 kts 249°
2026-04-18 10:30 41.29140 2.10084 18 ft 43 kts 245°
2026-04-18 10:30 41.28877 2.09326 19 ft 137 kts 245°
2026-04-18 10:30 41.28382 2.07866 325 ft 193 kts 245°
2026-04-18 10:30 41.27754 2.06237 1165 ft 205 kts 231°
2026-04-18 10:31 41.26528 2.05293 1904 ft 217 kts 187°
2026-04-18 10:31 41.25035 2.05613 2796 ft 222 kts 154°
2026-04-18 10:31 41.23622 2.06442 3597 ft 225 kts 172°
2026-04-18 10:31 41.22121 2.06061 4396 ft 221 kts 208°
2026-04-18 10:32 41.20753 2.05116 5180 ft 224 kts 205°
2026-04-18 10:32 41.19321 2.04298 5906 ft 222 kts 203°
2026-04-18 10:32 41.17925 2.03344 6436 ft 235 kts 224°
2026-04-18 10:32 41.17087 2.01485 7011 ft 242 kts 257°
2026-04-18 10:33 41.17120 1.99243 7642 ft 250 kts 289°
2026-04-18 10:33 41.17886 1.97183 8427 ft 251 kts 303°
2026-04-18 10:33 41.18866 1.95235 9231 ft 256 kts 306°
2026-04-18 10:33 41.19872 1.93266 10041 ft 260 kts 306°
2026-04-18 10:34 41.20882 1.91255 10784 ft 263 kts 305°
2026-04-18 10:34 41.21898 1.89207 11528 ft 267 kts 304°
2026-04-18 10:34 41.22923 1.87135 12270 ft 269 kts 306°
2026-04-18 10:34 41.24139 1.85175 12718 ft 287 kts 315°
2026-04-18 10:35 41.25618 1.83223 13051 ft 307 kts 317°
2026-04-18 10:35 41.27187 1.81227 13718 ft 317 kts 317°
2026-04-18 10:35 41.28787 1.79180 14488 ft 323 kts 317°
2026-04-18 10:35 41.30442 1.77037 14832 ft 345 kts 316°
2026-04-18 10:36 41.32215 1.74716 15022 ft 371 kts 316°
2026-04-18 10:36 41.34107 1.72218 15327 ft 391 kts 316°
2026-04-18 10:36 41.36054 1.69634 15980 ft 400 kts 316°
2026-04-18 10:36 41.38036 1.66995 16743 ft 406 kts 316°
2026-04-18 10:37 41.40038 1.64320 17610 ft 409 kts 315°
2026-04-18 10:37 41.42053 1.61627 18478 ft 412 kts 315°
2026-04-18 10:37 41.44089 1.58905 19173 ft 416 kts 315°
2026-04-18 10:37 41.46133 1.56169 19923 ft 416 kts 315°
2026-04-18 10:38 41.48160 1.53430 20188 ft 414 kts 313°
2026-04-18 10:38 41.49753 1.50227 20182 ft 418 kts 294°
2026-04-18 10:38 41.50505 1.46497 20179 ft 418 kts 277°
2026-04-18 10:38 41.50680 1.42643 20173 ft 416 kts 274°
2026-04-18 10:39 41.50869 1.38791 20188 ft 416 kts 275°
2026-04-18 10:39 41.51100 1.34939 20179 ft 417 kts 275°
2026-04-18 10:39 41.51345 1.31082 20175 ft 417 kts 275°
2026-04-18 10:39 41.51587 1.27219 20177 ft 418 kts 275°
2026-04-18 10:40 41.51828 1.23357 20175 ft 418 kts 275°
2026-04-18 10:40 41.52066 1.19488 20172 ft 418 kts 275°
2026-04-18 10:40 41.52303 1.15628 20170 ft 417 kts 275°
2026-04-18 10:40 41.52539 1.11765 20162 ft 417 kts 275°
2026-04-18 10:41 41.52771 1.07912 20172 ft 416 kts 275°
2026-04-18 10:41 41.53003 1.04065 20166 ft 416 kts 275°
2026-04-18 10:41 41.53230 1.00269 20167 ft 416 kts 275°
2026-04-18 10:41 41.53459 0.96423 20171 ft 416 kts 274°
2026-04-18 10:42 41.53686 0.92578 20172 ft 415 kts 274°
2026-04-18 10:42 41.53912 0.88738 20167 ft 415 kts 274°
2026-04-18 10:42 41.54137 0.84897 20180 ft 415 kts 274°
2026-04-18 10:42 41.54360 0.81050 20181 ft 416 kts 274°
2026-04-18 10:43 41.54583 0.77206 20180 ft 416 kts 274°
2026-04-18 10:43 41.54807 0.73351 20178 ft 416 kts 274°
2026-04-18 10:43 41.55026 0.69502 20179 ft 416 kts 274°
2026-04-18 10:43 41.55434 0.65720 20166 ft 412 kts 286°
2026-04-18 10:44 41.56654 0.62277 20168 ft 411 kts 305°
2026-04-18 10:44 41.58413 0.59366 20127 ft 398 kts 309°
2026-04-18 10:44 41.60144 0.56548 20028 ft 388 kts 308°
2026-04-18 10:44 41.61818 0.53772 19907 ft 379 kts 308°
2026-04-18 10:45 41.63448 0.51039 19722 ft 374 kts 308°
2026-04-18 10:45 41.65058 0.48324 19413 ft 372 kts 308°
2026-04-18 10:45 41.66663 0.45609 19063 ft 372 kts 308°
2026-04-18 10:45 41.68268 0.42894 18726 ft 371 kts 308°
2026-04-18 10:46 41.69865 0.40185 18396 ft 370 kts 308°
2026-04-18 10:46 41.71455 0.37488 18057 ft 369 kts 307°
2026-04-18 10:46 41.73040 0.34798 17717 ft 367 kts 307°
2026-04-18 10:46 41.74579 0.32092 17349 ft 362 kts 302°
2026-04-18 10:47 41.75578 0.29031 16776 ft 360 kts 285°
2026-04-18 10:47 41.76242 0.25784 16315 ft 363 kts 285°
2026-04-18 10:47 41.76913 0.22529 16042 ft 360 kts 285°
2026-04-18 10:47 41.77588 0.19314 15815 ft 357 kts 285°
2026-04-18 10:48 41.78268 0.16119 15539 ft 356 kts 285°
2026-04-18 10:48 41.78811 0.12922 15148 ft 352 kts 274°
2026-04-18 10:48 41.78638 0.09693 14758 ft 353 kts 256°
2026-04-18 10:48 41.77914 0.06561 14521 ft 350 kts 249°
2026-04-18 10:49 41.77048 0.03482 14237 ft 348 kts 248°
2026-04-18 10:49 41.76187 0.00502 13951 ft 346 kts 248°
2026-04-18 10:49 41.75317 -0.02494 13548 ft 344 kts 248°
2026-04-18 10:49 41.74457 -0.05464 13142 ft 340 kts 248°
2026-04-18 10:50 41.73609 -0.08404 12757 ft 337 kts 248°
2026-04-18 10:50 41.72769 -0.11317 12364 ft 333 kts 249°
2026-04-18 10:50 41.71941 -0.14194 11991 ft 330 kts 249°
2026-04-18 10:50 41.71123 -0.17048 11611 ft 327 kts 249°
2026-04-18 10:51 41.70312 -0.19871 11244 ft 323 kts 249°
2026-04-18 10:51 41.69509 -0.22669 10879 ft 320 kts 249°
2026-04-18 10:51 41.68724 -0.25405 10720 ft 310 kts 249°
2026-04-18 10:51 41.67964 -0.28052 10555 ft 300 kts 249°
2026-04-18 10:52 41.67230 -0.30607 10442 ft 289 kts 249°
2026-04-18 10:52 41.66521 -0.33068 10314 ft 278 kts 249°
2026-04-18 10:52 41.65841 -0.35430 10195 ft 267 kts 249°
2026-04-18 10:52 41.65174 -0.37744 9962 ft 270 kts 249°
2026-04-18 10:53 41.64489 -0.40118 9662 ft 277 kts 249°
2026-04-18 10:53 41.63792 -0.42531 9330 ft 280 kts 249°
2026-04-18 10:53 41.63093 -0.44949 8984 ft 277 kts 249°
2026-04-18 10:53 41.62412 -0.47303 8667 ft 273 kts 249°
2026-04-18 10:54 41.61722 -0.49685 8338 ft 269 kts 249°
2026-04-18 10:54 41.61059 -0.51971 8034 ft 266 kts 249°
2026-04-18 10:54 41.60404 -0.54229 7578 ft 255 kts 249°
2026-04-18 10:54 41.59766 -0.56427 7291 ft 258 kts 248°
2026-04-18 10:55 41.59100 -0.58719 6975 ft 270 kts 248°
2026-04-18 10:55 41.58416 -0.61070 6642 ft 272 kts 248°
2026-04-18 10:55 41.57733 -0.63415 6295 ft 269 kts 248°
2026-04-18 10:55 41.57061 -0.65727 5979 ft 265 kts 248°
2026-04-18 10:56 41.56395 -0.68005 5655 ft 262 kts 248°
2026-04-18 10:56 41.55735 -0.70268 5349 ft 261 kts 248°
2026-04-18 10:56 41.55073 -0.72537 5067 ft 262 kts 249°
2026-04-18 10:56 41.54743 -0.74896 4750 ft 261 kts 276°
2026-04-18 10:57 41.55282 -0.77132 4638 ft 249 kts 298°
2026-04-18 10:57 41.56134 -0.79098 4399 ft 242 kts 299°
2026-04-18 10:57 41.56956 -0.80998 4176 ft 228 kts 299°
2026-04-18 10:57 41.57717 -0.82754 3856 ft 211 kts 299°
2026-04-18 10:58 41.58446 -0.84428 3612 ft 205 kts 298°
2026-04-18 10:58 41.59152 -0.86061 3348 ft 201 kts 299°
2026-04-18 10:58 41.59850 -0.87671 3091 ft 200 kts 299°
2026-04-18 10:58 41.60531 -0.89244 2819 ft 188 kts 300°
2026-04-18 10:59 41.61154 -0.90684 2573 ft 170 kts 300°
2026-04-18 10:59 41.61719 -0.91990 2347 ft 155 kts 300°
2026-04-18 10:59 41.62247 -0.93212 2152 ft 151 kts 300°
2026-04-18 10:59 41.62778 -0.94436 1987 ft 153 kts 300°
2026-04-18 11:00 41.63305 -0.95654 1771 ft 150 kts 300°
2026-04-18 11:00 41.63826 -0.96857 1596 ft 150 kts 300°
2026-04-18 11:00 41.64346 -0.98066 1366 ft 148 kts 300°
2026-04-18 11:00 41.64858 -0.99246 1188 ft 147 kts 300°
2026-04-18 11:01 41.65362 -1.00417 987 ft 148 kts 300°
2026-04-18 11:01 41.65868 -1.01591 878 ft 136 kts 300°
2026-04-18 11:01 41.66255 -1.02483 876 ft 85 kts 300°
2026-04-18 11:02 41.66596 -1.03154 876 ft 18 kts 16°
2026-04-18 11:02 41.66692 -1.03083 876 ft 18 kts 30°
2026-04-18 11:02 41.66747 -1.02963 876 ft 17 kts 109°
2026-04-18 11:02 41.66702 -1.02862 876 ft 21 kts 121°
2026-04-18 11:03 41.66587 -1.02595 876 ft 29 kts 120°
2026-04-18 11:03 41.66513 -1.02424 876 ft 33 kts 120°
2026-04-18 11:03 41.66399 -1.02160 876 ft 34 kts 121°
2026-04-18 11:03 41.66268 -1.01869 876 ft 39 kts 121°
2026-04-18 11:04 41.66142 -1.01568 876 ft 38 kts 119°
2026-04-18 11:04 41.66000 -1.01241 876 ft 43 kts 120°
2026-04-18 11:04 41.65844 -1.00878 876 ft 48 kts 120°
2026-04-18 11:04 41.65800 -1.00655 876 ft 19 kts 40°
2026-04-18 11:05 41.65939 -1.00579 876 ft 24 kts
2026-04-18 11:05 41.66059 -1.00606 876 ft 11 kts 21°
2026-04-18 11:05 41.66099 -1.00569 876 ft 6 kts 37°
2026-04-18 11:05 41.66104 -1.00564 876 ft 0 kts 37°